Regional Weather Roundup
Issued by NWS Nashville, TN

Home | Current Version | Previous Version | Text Only | Print | Product List | Glossary On
Versions: 1 2 3 4 5 6 7 8 9 10 11 12 13 14 15 16 17 18 19 20 21 22 23 24 25 26 27 28 29 30 31 32 33 34 35 36 37 38 39 40 41 42 43 44 45 46 47 48 49 50
000
ASUS44 KOHX 051010
RWROHX
MIDDLE TENNESSEE HOURLY WEATHER ROUNDUP
NATIONAL WEATHER SERVICE NASHVILLE TN
400 AM CST MON DEC 05 2016

NOTE: "FAIR" INDICATES FEW OR NO CLOUDS BELOW 12,000 FEET WITH
NO SIGNIFICANT WEATHER AND/OR OBSTRUCTIONS TO VISIBILITY.

* THESE REPORTS ARE NOT UNDER NWS QUALITY CONTROL AND MAY NOT
  REPORT WEATHER SUCH AS PRECIPITATION AND FOG.


TNZ005>011-023>034-057-059-062>066-078-080-051100
...NORTHERN MIDDLE TENNESSEE...

CITY           SKY/WX    TMP DP  RH WIND       PRES   REMARKS
CLARKSVILLE    CLOUDY    41  35  79 N8        30.07S
CROSSVILLE     CLOUDY    44  43  96 N5        30.01F FOG
LEBANON        CLOUDY    43  42  96 N5        30.03F
NASHVILLE      CLOUDY    45  40  82 N7        30.05S
PORTLAND       CLOUDY    41  39  93 N8        30.06S
SMYRNA         CLOUDY    45  43  93 N8        30.06R
SPRINGFIELD    CLOUDY    41  39  93 N7        30.05S
WEST NASHVILLE CLOUDY    41  39  93 N6        30.06S
$$
TNZ056-058-060-061-075>077-079-093>097-051100
...SOUTHERN MIDDLE TENNESSEE...

CITY           SKY/WX    TMP DP  RH WIND       PRES   REMARKS
COLUMBIA       CLOUDY   N/A N/A N/A NE5       30.01F
FAYETTEVILLE   CLOUDY    46  46 100 N7        30.01F FOG
MCMINNVILLE    CLOUDY    45  45 100 N8        30.01F
MURFREESBORO   CLOUDY    45  44  96 N6        30.04
SHELBYVILLE    CLOUDY    45  45 100 N7        30.04S
TULLAHOMA      CLOUDY    45  45 100 N7        30.01F
WINCHESTER     CLOUDY    46  45  93 N5        30.01S
$$


...KEY TO REMARKS...
VSB - VISIBILITY IN MILES
WCI - WIND CHILL INDEX
HX  - HEAT INDEX




USA.gov is the U.S. government's official web portal to all federal, state and local government web resources and services.